Weather in Churyakovo

Russia / Yaroslavl Oblast     57°32′29″N   38°22′19″E
temp.,
°C
wind,
m/s
gust,
m/s
humid.,
%
clouds,
%
prec.,
mm/h
press.,
hPa
HPBL,
m
8 may, sat
sat800:00+5sse3981100 0.0 1011167
03:00+6sse41274100 0.0 1011288
06:00+8s51466100 0.0 1009726
09:00+8sse71684100 0.9 10081351
12:00+7sse71392100 3.1 10071169
15:00+8se51093100 7.6 10061073
18:00+7se2798100 4.3 1004368
21:00+7e1199100 7.4 100349
9 may, sun
sun900:00+5nnw71395100 2.7 1004638
03:00+4nw61197100 4.3 1005857
06:00+3nw61193100 2.5 1008817
09:00+4nw61185100 2.6 10111082
12:00+6nw5976100 0.1 10141260
15:00+11nw594899 0.2 10162255
18:00+10nw48559 0.1 10181173
21:00+5w357671 0.1 102178
10 may, mon
mon1000:00+3wnw36770 0.0 1024100
03:00+2wnw22745 0.0 102623
06:00+4sw237318 0.0 102875
09:00+10sw35565 0.0 1029554
12:00+14sw57437 0.0 10281731
15:00+12sw3761100 0.0 1028314
18:00+13sw386172 0.0 1028687
21:00+9ssw368111 0.0 102999
11 may, tue
tue1100:00+8ssw36875 0.0 1030111
03:00+7sw3491100 0.0 103174
06:00+8ssw2586100 0.0 1031123
09:00+14ssw3467100 0.0 1032372
12:00+17ssw3457100 0.0 1032885
15:00+18ssw3354100 0.0 10311121
18:00+18ssw126372 0.0 1030642
21:00+12sse22825 0.0 103015
12 may, wed
wed1200:00+10s22893 0.0 103029
03:00+9sse11910 0.0 103110
06:00+11se12850 0.0 103164
09:00+17se24600 0.0 1030575
12:00+20se45505 0.0 10291224
15:00+21se45505 0.0 10281440
18:00+20ese35610 0.0 1027605
21:00+14ese22840 0.0 102712